www.pogodaiklimat.ru
ПОГОДА в Кэнби
Время
(UTC), дата
20:35 10.12
20:55 10.12
21:15 10.12
21:35 10.12
21:55 10.12
22:15 10.12
22:35 10.12
22:55 10.12
23:15 10.12
23:35 10.12
23:55 10.12
00:15 10.12
00:35 10.12
00:55 10.12
01:15 10.12
01:35 10.12
01:55 10.12
02:15 10.12
02:35 10.12
02:55 10.12
03:15 10.12
03:35 10.12
03:55 10.12
04:15 10.12
04:35 10.12
04:55 10.12
05:15 11.12
05:35 11.12
05:55 11.12
06:15 11.12
06:35 11.12
06:55 11.12
07:15 11.12
07:35 11.12
07:55 11.12
08:15 11.12
08:35 11.12
08:55 11.12
09:15 11.12
09:35 11.12
09:55 11.12
10:15 11.12
10:35 11.12
10:55 11.12
11:15 11.12
11:35 11.12
11:55 11.12
12:15 11.12
Ветер
(напр.,м/с)
Видим. Явления Облачность Т
(С)
Тd
(С)
f
(%)
Тe
(С)
Тes
(С)
Комфортность P
(гПа)
Po
(гПа)
Тmin
(С)
Tmax
(С)
R
(мм)
R24
(мм)
S
(см)
ЮЗ 3 16 км ясно -15.0 -20.0 66 -22 -21 980.8
ЮЗ 3 16 км ясно -15.0 -20.0 66 -22 -21 980.8
ЮЗ 3 16 км ясно -15.0 -20.0 66 -22 -22 980.5
ЮЗ 3 16 км ясно -16.0 -21.0 65 -23 -23 980.5
0 16 км ясно -16.0 -21.0 65 -16 -16 980.5
0 16 км ясно -17.0 -22.0 65 -17 -17 980.2
ЮЗ 1 16 км ясно -17.0 -22.0 65 -21 -21 979.8
ЮЗ 3 16 км ясно -18.0 -21.0 77 -25 -25 979.5
ЮЗ 4 16 км ясно -17.0 -21.0 71 -25 -25 979.2
ЮЗ 5
{8}
16 км 5/0 2550 м
[средняя]
-16.0 -20.0 71 -26 -26 979.2
ЮЗ 6
{9}
16 км 8/0 2550 м
[средняя]
-15.0 -19.0 71 -25 -25 978.9
ЮЗ 6 16 км 10/0 2550 м
[средняя]
-14.0 -18.0 72 -24 -24 978.9
ЮЗ 4 16 км 10/0 2550 м
[средняя]
-14.0 -18.0 72 -23 -23 978.9
ЮЗ 4 16 км 10/0 2550 м
[средняя]
-14.0 -18.0 72 -23 -23 978.9
ЮЗ 4 16 км 10/0 2550 м
[средняя]
-13.0 -17.0 72 -21 -21 978.5
ЮЗ 4 16 км 10/0 2550 м
[средняя]
-13.0 -17.0 72 -20 -20 978.5
ЮЗ 4 16 км 10/0 2550 м
[средняя]
-13.0 -17.0 72 -20 -20 978.5
З 4 16 км 10/0 2550 м
[средняя]
-12.0 -16.0 72 -19 -19 978.2
ЮЗ 4 16 км 10/0 2550 м
[средняя]
-12.0 -16.0 72 -19 -19 977.9
ЮЗ 4 16 км 10/0 2550 м
[средняя]
-12.0 -16.0 72 -20 -20 977.9
ЮЗ 4 16 км 10/0 2550 м
[средняя]
-11.0 -15.0 72 -18 -18 978.2
ЮЗ 5
{8}
16 км 10/0 2550 м
[средняя]
-11.0 -15.0 72 -20 -20 978.2
З 4 16 км 10/0 2550 м
[средняя]
-11.0 -15.0 72 -19 -19 978.2
СЗ 4 16 км 10/5 1950 м
[средняя]
-11.0 -15.0 72 -19 -19 978.5
СЗ 5 16 км 10/0 2550 м
[средняя]
-10.0 -15.0 67 -19 -19 978.9
СЗ 4 16 км 10/0 2250 м
[средняя]
-10.0 -14.0 72 -18 -18 979.2
СЗ 4 16 км 10/0 2250 м
[средняя]
-10.0 -14.0 72 -17 -17 979.5
З 6
{10}
16 км 10/0 2250 м
[средняя]
-10.0 -15.0 67 -19 -19 979.8
З 6
{8}
16 км 10/5 750 м
[средняя]
-10.0 -15.0 67 -19 -19 980.2
З 6
{10}
16 км 10/10 1950 м -11.0 -16.0 67 -20 -20 980.5
С 5 16 км 10/10 1950 м -12.0 -17.0 66 -21 -21 980.8
СЗ 5
{8}
16 км 5/5 1950 м -13.0 -18.0 66 -22 -22 981.1
СЗ 4
{7}
16 км ясно -14.0 -18.0 72 -22 -22 981.5
З 4 16 км ясно -15.0 -19.0 71 -23 -23 981.8
З 4 16 км ясно -15.0 -19.0 71 -23 -23 982.1
СЗ 3 16 км ясно -15.0 -19.0 71 -22 -22 982.4
З 3 16 км ясно -16.0 -20.0 71 -23 -23 982.7
С 4 16 км ясно -16.0 -19.0 78 -25 -25 982.7
СЗ 4 16 км ясно -17.0 -20.0 77 -25 -25 983.4
С 3 16 км ясно -17.0 -21.0 71 -25 -25 983.4
С 3 16 км ясно -18.0 -21.0 77 -25 -25 983.7
З 2 16 км ясно -18.0 -22.0 71 -25 -25 984.0
З 1 16 км ясно -19.0 -22.0 77 -24 -24 984.4
СЗ 2 16 км ясно -20.0 -23.0 77 -27 -27 985.0
СЗ 1 16 км ясно -20.0 -23.0 77 -25 -25 985.0
СЗ 2 16 км ясно -20.0 -23.0 77 -27 -27 985.7
0 16 км ясно -21.0 -23.0 84 -21 -21 985.7
З 2 16 км ясно -21.0 -24.0 77 -28 -28 985.3
Местоположение метеостанции Myers Field Airport: широта 44.7295 долгота -96.2660 высота над уровнем моря 364 м.
В архиве по умолчанию представлена погода в Кэнби за последние 1-2 суток. Обновление информации о фактической погоде в базе происходит ежечасно! Архивные данные за месяц целиком и за предыдущие месяцы Вы можете получить, выбрав интересующий диапазон дат из раскрывающегося списка и нажав кнопку "Ввод!".
Внимание! Архив погоды МЕТАР в базе сайта по станциям, не включенным в климатический монитор, хранится не более 60 дней. Нет смысла пытаться выбрать более раннюю дату.
*Определитесь, кто Вы:
Внимание! Время в таблицах - всемирное. Для получения местного времени необходимо прибавить поправку, которая равна ч.
Смотрите также архив погоды в соседних городах и на ближайших метеорологических станциях:
Партнеры нашего сайта:      
Пояснения к столбцам:
  • Ветер - указаны скорость ветра в м/с - средняя за 10 мин, порывы в срок и между сроками (в фигурных скобках) и направление, откуда дует ветер: С - северный,
  • СВ - северо-восточный, В - восточный, ЮВ - юго-восточный, Ю - южный, ЮЗ - юго-западный, З - западный, СЗ - северо-западный.
  • Видимость - горизонтальная дальность видимости в метрах или километрах. При видимости от 1 до 10 км при отсутствии осадков обычно наблюдается дымка, при ухудшении видимости до 1 км и менее - туман. В сухую погоду видимость может ухудшаться дымом, пылью или мглою.
  • Явления - указаны атмосферные явления, наблюдавшиеся в срок или в последний час перед сроком; фигурными скобками обозначены явления, наблюдавшиеся между сроками (за 1-3 часа до срока); квадратными скобками обозначены град или гололедные отложения с указанием их диаметра в мм.
  • Облачность - указаны через наклонную черту общая и нижняя облачность в баллах и высота нижней границы облаков в метрах; квадратными скобками обозначены формы облаков: Ci - перистые, Cs - перисто-слоистые, Cc - перисто-кучевые, Ac - высококучевые, As - высокослоистые, Sc - слоисто-кучевые, Ns - слоисто-дождевые, Cu - кучевые, Cb - кучево-дождевые. Подробнее классификацию облаков см. в Атласе облаков (PDF).
  • T - Температура воздуха - температура, измеренная на высоте 2 м над землей.
  • Td - Температура точки росы - температура, при понижении до которой содержащийся в воздухе водяной пар достигнет насыщения.
  • f - Относительная влажность воздуха - влажноcть воздуха, измеренная на высоте 2 м над землей.
  • Te - Эффективная температура - температура, которую ощущает одетый по сезону человек в тени. Характеристика душности погоды. При расчете учитывается влияние влажности воздуха и скорости ветра на теплоощущения человека.
  • Tes - Эффективная температура на солнце - температура, которую ощущает человек, с поправкой на солнечный нагрев. Характеристика знойности погоды. Зависит от высоты солнца над горизонтом, облачности и скорости ветра. Ночью, в пасмурную погоду, а также при ветре 12 м/с и более поправка равна нулю.
  • P - Атмосферное давление - приведенное к уровню моря атмосферное давление.
  • Po - Атмосферное давление - измеренное на уровне метеостанции атмосферное давление.
  • Tmin - Минимальная температура - минимум температуры воздуха на высоте 2 м над землей.
  • Tmax - Максимальная температура - максимум температуры воздуха на высоте 2 м над землей.
  • R - Количество осадков - Количество выпавших осадков за период времени, мм. При наведении курсора мыши на число - период времени, за который выпало указанное количество осадков.
  • R24 - Количество осадков - Количество выпавших осадков за 24 часа, мм.
  • S - Снежный покров - Высота снежного покрова, см. При наведении курсора мыши на число - состояние снежного покрова и степень покрытия местности в баллах.